Home > Weather > Pori > Past weeks

Flag for Finland Past Weather in Pori, Finland — Yesterday and Last 2 Weeks

Now
66 °F

Overcast.


Feels Like: 66 °F
Forecast: 54 / 68 °F
Wind: 13 mph from Southeast

Location: Pori Airport

Current Time: Jun 27, 2016 at 12:40:25 PM

Latest Report: Jun 27, 2016 at 12:20 PM


Visibility: N/A

Pressure: 29.77 "Hg

Humidity: 83%

Dew Point: 61 °F

Location of PoriLocation

Past Weather in Pori — Graph

°F

Pori Temperature Yesterday

Maximum temperature yesterday: 77 °F (at 2:20 PM)
Minimum temperature yesterday: 57 °F (at 1:50 AM)
Average temperature yesterday: 68 °F

High & Low Weather Summary for the Past Weeks

 TemperatureHumidityPressure
High77 °F (Jun 15, 4:20 PM)100% (Jun 16, 10:50 AM)30.18 "Hg (Jun 16, 10:50 AM)
Low39 °F (Jun 14, 3:50 AM)21% (Jun 15, 7:20 PM)29.21 "Hg (Jun 18, 9:20 AM)
Average60 °F76%29.83 "Hg
* Reported Jun 12 11:50 AM — Jun 27 11:20 AM, Pori, Weather by CustomWeather, © 2016

Note: Actual official high and low records may vary slightly from our data, if they occured in-between our weather recording intervals... More about our weather records

Advertising

Pori Weather History for the Previous 24 Hours

Scroll right to see more
 ConditionsComfort  
Time TempWeatherWind HumidityBarometerVisibility
11:20 AM
Mon, Jun 27
66 °FOvercast.13 mph78%29.77 "HgN/A
10:50 AM66 °FOvercast.15 mph78%29.77 "HgN/A
10:20 AM66 °FOvercast.15 mph73%29.77 "HgN/A
9:50 AM66 °FOvercast.16 mph73%29.77 "HgN/A
9:20 AM66 °FOvercast.15 mph73%29.77 "HgN/A
8:50 AM66 °FOvercast.15 mph73%29.77 "HgN/A
8:20 AM66 °FMostly cloudy.14 mph68%29.77 "HgN/A
7:50 AM66 °FOvercast.15 mph68%29.77 "HgN/A
7:20 AM66 °FOvercast.14 mph68%29.77 "HgN/A
6:50 AM66 °FOvercast.13 mph68%29.80 "HgN/A
6:20 AM66 °FOvercast.13 mph68%29.80 "HgN/A
5:50 AM66 °FOvercast.13 mph68%29.80 "HgN/A
5:20 AM66 °FOvercast.10 mph73%29.80 "HgN/A
4:50 AM66 °FOvercast.10 mph73%29.80 "HgN/A
4:20 AM66 °FPartly cloudy.9 mph73%29.80 "HgN/A
3:50 AM66 °FOvercast.9 mph73%29.80 "HgN/A
3:20 AM66 °FPassing clouds.9 mph78%29.80 "HgN/A
2:50 AM66 °FPassing clouds.8 mph78%29.83 "HgN/A
2:20 AM64 °FPartly cloudy.7 mph88%29.83 "HgN/A
1:50 AM66 °FLight rain. Overcast.7 mph83%29.83 "HgN/A
1:20 AM64 °FLight rain. Partly cloudy.10 mph88%29.83 "HgN/A
12:50 AM66 °FLight rain. Mostly cloudy.14 mph83%29.83 "HgN/A
12:20 AM72 °FOvercast.12 mph61%29.83 "HgN/A
11:50 PM
Sun, Jun 26
72 °FCloudy.9 mph61%29.86 "HgN/A
11:20 PM72 °FOvercast.9 mph61%29.86 "HgN/A
10:50 PM72 °FBroken clouds.8 mph61%29.86 "HgN/A
10:20 PM72 °FPartly sunny.8 mph65%29.86 "HgN/A
9:50 PM73 °FPassing clouds.8 mph61%29.83 "HgN/A
9:20 PM73 °FSunny.8 mph61%29.83 "Hg10 mi
8:50 PM73 °FPassing clouds.7 mph61%29.83 "HgN/A
8:20 PM75 °FSunny.12 mph57%29.86 "Hg10 mi
7:50 PM75 °FSunny.10 mph57%29.83 "Hg10 mi
7:20 PM75 °FPassing clouds.9 mph57%29.86 "HgN/A
6:50 PM75 °FPassing clouds.10 mph57%29.86 "HgN/A
6:20 PM75 °FPassing clouds.10 mph57%29.86 "HgN/A
5:50 PM75 °FSunny.13 mph57%29.86 "Hg10 mi
5:20 PM75 °FSunny.13 mph54%29.86 "Hg10 mi
4:50 PM77 °FPassing clouds.12 mph54%29.89 "HgN/A
4:20 PM77 °FPassing clouds.12 mph51%29.89 "HgN/A
3:50 PM77 °FPassing clouds.12 mph54%29.89 "HgN/A
3:20 PM77 °FSunny.10 mph54%29.89 "Hg10 mi
2:50 PM77 °FScattered clouds.12 mph51%29.89 "HgN/A
2:20 PM77 °FPassing clouds.12 mph54%29.92 "HgN/A
1:50 PM75 °FScattered clouds.10 mph57%29.92 "HgN/A
1:20 PM75 °FPassing clouds.10 mph57%29.92 "HgN/A
12:50 PM73 °FPassing clouds.9 mph61%29.92 "HgN/A
12:20 PM73 °FPassing clouds.8 mph61%29.95 "HgN/A
Weather by CustomWeather, © 2016

See weather overviewHow to use our weather pages